User: anonymous   Login
Location: Unspecified
(0.0000°N, 0.0000°E)
Time: 18:03:36
(UTC+00:00)
Language:

KUIPER-00075 - Orbit

View from above orbital plane
View from above orbital plane
View from above satellite
View from above satellite

Ground track
Ground track

The orbit is defined by the following mean orbital elements,

1 64822U          26145.34310566 +.00000000 +00000-0 +59102-3 0 00001
2 64822  51.8662 208.0571 0003006 196.1458 163.9436 15.43888464    01
Epoch (UTC): 25 May 2026 08:14:04
Eccentricity: 0.0003006
inclination: 51.8662°
perigee height: 433 km
apogee height: 437 km
right ascension of ascending node: 208.0571°
argument of perigee: 196.1458°
revolutions per day: 15.43888464
mean anomaly at epoch: 163.9436°

The dashed part of the orbit path shows where the satellite is in the earth's shadow,  

DLR